Vorticity
nan nan nan nan nan nan nan nan nan nan nan nan nan nan nan nan nan nan nan nan nan nan
nan 9 8 9 8 8 9 9 8 8 8 9 9 8 9 9 8 9 9 11 10 nan
nan 9 9 8 8 8 8 8 7 7 7 8 7 8 8 8 8 9 10 9 9 nan
nan 8 7 8 8 8 7 6 6 7 7 7 8 9 10 9 10 9 9 9 9 nan
nan 8 8 7 7 7 6 7 8 8 8 9 9 10 10 10 9 9 9 9 8 nan
nan 7 7 7 7 8 8 7 8 9 9 9 9 10 9 10 9 9 9 9 10 nan
nan 7 7 7 8 8 8 9 9 9 10 10 8 10 9 9 9 10 10 9 9 nan
nan 7 8 8 9 9 8 10 10 10 9 8 9 11 8 8 9 9 9 10 10 nan
nan 8 8 9 9 9 10 10 11 8 7 8 9 10 7 7 10 11 10 9 10 nan
nan 8 8 9 10 9 9 9 9 8 7 8 6 3 7 10 9 11 11 9 9 nan
nan 8 9 8 9 9 8 7 7 8 9 8 6 4 7 9 11 11 10 10 8 nan
nan 9 9 9 7 7 9 9 8 7 9 10 10 11 8 9 12 10 10 9 10 nan
nan 8 9 9 8 7 7 8 8 8 10 11 13 7 7 11 12 11 10 9 12 nan
nan nan nan nan nan nan nan nan nan nan nan nan nan nan nan nan nan nan nan nan nan nan
CAPE
0 0 0 0 0 0 0 0 0 0 0 0 0 0 0 0 0 0 0 0 3 7
0 0 0 0 0 0 0 0 0 0 0 0 0 0 0 0 0 2 4 10 15 17
0 0 0 0 0 0 0 0 0 0 0 0 0 0 0 0 1 4 4 5 12 18
0 0 0 0 0 0 0 0 0 0 0 0 0 0 0 1 1 1 4 10 11 13
0 0 0 0 0 0 0 0 0 0 0 0 0 0 0 1 2 3 6 7 11 11
0 0 0 0 0 0 0 0 0 0 0 0 1 1 1 1 2 5 5 8 10 11
0 0 0 0 0 0 0 0 0 0 0 0 0 0 1 2 4 6 6 12 15 13
0 0 0 0 0 0 0 0 0 0 0 1 0 0 0 1 4 10 10 11 10 11
0 0 0 0 0 0 0 0 0 0 0 2 0 0 0 0 8 8 4 4 6 5
0 0 0 0 0 0 0 0 0 0 2 3 5 0 0 0 6 7 8 10 7 5
0 0 0 0 0 0 0 1 3 4 4 5 5 0 0 0 7 6 6 8 9 7
0 0 0 0 0 1 2 3 4 3 4 5 6 0 0 0 7 6 6 4 7 5
0 0 0 0 2 3 2 2 2 0 0 0 3 0 0 1 10 8 10 6 7 2
0 0 0 1 3 3 4 0 0 0 1 2 2 5 0 4 11 15 17 20 17 22